Lobo

Go HERE for most recent data if this page is not up to date.

Jump to table bottom
Date/Time Temp deg F RH % 24 Hr Snow (in) Snow Depth (in) H2O (in)
12/01 21:00 39.7 64 -0.2 12.3 0.00
12/01 20:00 40.0 65 -0.2 12.3 0.00
12/01 19:00 40.3 64 -0.2 12.2 0.00
12/01 18:00 40.6 64 -0.2 12.4 0.00
12/01 17:00 41.0 64 -0.2 12.3 0.00
12/01 16:00 41.6 61 -0.3 12.3 0.00
12/01 15:00 42.1 61 -0.2 12.3 0.00
12/01 14:00 43.6 61 -0.3 12.4 0.00
12/01 13:00 44.0 57 -0.3 12.5 0.00
12/01 12:00 42.7 59 -0.3 12.8 0.00
12/01 11:00 39.3 63 -0.2 13.1 0.00
12/01 10:00 37.2 72 -0.1 13.5 0.00
12/01 09:00 35.3 76 -0.1 13.6 0.00
12/01 08:00 35.0 81 -0.0 13.8 0.00
12/01 07:00 35.5 82 -0.0 13.7 0.00
12/01 06:00 34.7 82 -0.0 13.7 0.00
12/01 05:00 35.8 88 -0.0 13.9 0.00
12/01 04:00 35.9 79 -0.0 13.7 0.00
12/01 03:00 35.9 81 -0.1 13.7 0.00
12/01 02:00 35.0 79 -0.0 13.8 0.00
12/01 01:00 33.2 88 0.0 14.1 0.00
12/01 00:00 33.9 85 -0.0 14.0 0.00
11/30 23:00 33.3 82 -0.0 14.0 0.00
11/30 22:00 32.5 81 0.0 14.1 0.00
11/30 21:00 32.6 82 0.0 14.3 0.00
11/30 20:00 32.9 73 0.0 14.3 0.00
11/30 19:00 31.5 72 0.0 14.3 0.00
11/30 18:00 30.6 76 0.1 14.5 0.00
11/30 17:00 32.7 57 0.0 14.3 0.00
11/30 16:00 33.1 58 2.7 14.2 0.00
11/30 15:00 33.4 51 2.8 14.3 0.00
11/30 14:00 32.7 47 2.8 14.3 0.00
11/30 13:00 31.0 45 2.9 14.5 0.00
11/30 12:00 30.7 39 2.9 14.6 0.00
11/30 11:00 29.7 33 3.0 14.8 0.00
11/30 10:00 28.6 35 3.1 14.8 0.00
11/30 09:00 27.0 38 3.2 15.1 0.00
11/30 08:00 26.3 53 3.1 14.9 0.00
11/30 07:00 24.7 55 3.2 15.1 0.00
11/30 06:00 26.9 51 3.4 15.6 0.00
11/30 05:00 24.5 32 3.4 15.5 0.00
11/30 04:00 23.1 74 3.3 15.4 0.00
11/30 03:00 21.8 99 3.6 15.9 0.00
11/30 02:00 21.9 97 3.5 15.6 0.00
11/30 01:00 22.0 97 3.5 15.7 0.00
11/30 00:00 22.9 99 3.5 15.7 0.00
.